STARLINK-32805, 62740

Orbit data source: Space-Track

STARLINK-32805, 62740 is a payload satellite owned by SpaceX/Seattle (US) in LEO that was launched on Tue, 21 Jan 2025 UTC via an FALCON 9 launch vehicle from the Air Force Eastern Test Range (AFETR). Payload-class satellites include a variety of spacecraft equipped with specific instruments for various scientific and technological missions. These include communications satellites like Starlink; space stations such as the ISS; scientific satellites like the Hubble; Earth observation satellites from companies like Planet Labs, Umbra, and HawkEye 360; GPS; miniature CubeSats for education and research; and military/defense satellites.

Loading next visibility...
Identifier
62740, 2025-014F
Orbit
LEO
Country
Flag of USUS
Related business
Manufacturer
SpaceX/Seattle
Mission
Operational Commercial Communications
Bus & Motor
STARLINK V2M, Unknown motor
Mass
730 kg wet, ~700 kg dry
Launch date (UTC)
2025-01-21 (11 months ago)
Launch vehicle
FALCON 9
Launch site
Air Force Eastern Test Range (AFETR)
Object type
Payload
Rocket body
Debris
Shape & HBR
Box + 2 Pan, 17.7 m
Radar Cross Section
33.884 m², Large (>1 m²)

Expand to show TLE details & history
Last TLE update: 1 day ago

TLE from 1 day ago
0 STARLINK-32805
1 62740U 25014F   25348.16881180  .00044706  00000-0  16240-2 0  9992
2 62740  42.9995 277.7518 0001333 297.3674  62.7041 15.27584585 50177
Epoch: 2025-12-14T04:03Z
TLE epoch observation values (Epoch: 2025-12-14T04:03:05.339Z)
Latitude
-0.00008°
Longitude
133.89387°
Altitude
482.391 km
Speed
7.626 km/s
True Right ascension
18h 31m 00s
True Declination
0° 00' 00"
Sunlit
Object was in daylight at epoch
Visualization orbit readout
Latitude
Unknown
Longitude
Unknown
Altitude
Unknown
Speed
Unknown
Apparent Right ascension
Unknown
Apparent Declination
Unknown
Sunlit
N/A
Visualization observer readout
Local Sidereal Time
13:26:15
Azimuth
Unknown
Elevation
Unknown
Doppler factor
Unknown
Orbital elements
Apogee altitude
485.895 km
Perigee altitude
484.066 km
Semi-major axis
6,863.118 km
Eccentricity
0.00013
Inclination
42.9995°
RAAN
277.7518°
Arg. of periapsis
297.3674°
True anomaly
62.71768°
Mean anomaly
62.7041°
Eccentric anomaly
62.71089°
Mean motion
3.81734 °/min
Orbital period
94.31 mins
BSTAR
0.001624
Loading maneuver chart data...
Computing Atmospheric mass density...
Loading historical data...
Loading historical data...
Loading historical data...
Loading historical data...
Loading historical data...
Loading historical data...
Loading historical data...

Documentation

Showing up to 5 results
|